EW9963 Weather Reports


Display with metric or nautical units.
time (UTC)temp
F
wind
direction
speed
MPH
gust
MPH
rain 1hr
in
rain 24hr
in
rain mn
in
humidity
%
barometer
mb
20260505113049 54 0 0.0 0.0 0.00 0.00 0.00 91 1017.2
20260505111541 51 0 0.0 0.0 0.00 0.00 0.00 90 1017.2
20260505101559 51 0 0.0 0.0 0.00 0.00 0.00 89 1016.8
20260505100059 52 0 0.0 0.0 0.00 0.00 0.00 89 1016.7
20260505094540 52 0 0.0 0.0 0.00 0.00 0.00 89 1016.6
20260505093040 52 0 0.0 0.0 0.00 0.00 0.00 89 1016.6
20260505091543 52 0 0.0 0.0 0.00 0.00 0.00 88 1016.4
20260505090042 52 0 0.0 0.0 0.00 0.00 0.00 88 1016.2
20260505084543 52 0 0.0 0.0 0.00 0.00 0.00 88 1016.3
20260505083041 52 0 0.0 0.0 0.00 0.00 0.00 87 1016.0
20260505081558 52 0 0.0 0.0 0.00 0.00 0.00 87 1015.9
20260505080056 52 0 0.0 0.0 0.00 0.00 0.00 87 1015.8
20260505074543 53 0 0.0 0.0 0.00 0.00 0.00 86 1015.7
20260505073042 53 0 0.0 0.0 0.00 0.00 0.00 85 1015.7
20260505071549 54 0 0.0 0.0 0.00 0.00 0.00 85 1015.7
20260505070040 54 0 0.0 0.0 0.00 0.00 0.00 84 1015.7
20260505064544 54 0 0.0 0.0 0.00 0.00 0.00 84 1015.8
20260505063047 55 0 0.0 0.0 0.00 0.00 0.00 84 1015.9
20260505061544 55 0 0.0 0.0 0.00 0.00 0.00 83 1016.1
20260505060043 55 0 0.0 0.0 0.00 0.00 0.00 83 1016.3
20260505054547 56 0 0.0 0.0 0.00 0.00 0.00 82 1016.3
20260505053047 56 0 0.0 0.0 0.00 0.00 0.00 82 1016.5
20260505051543 57 0 0.0 0.0 0.00 0.00 0.00 80 1016.7
20260505041546 59 0 0.0 0.0 0.00 0.00 0.00 77 1016.7
20260505040045 60 0 0.0 0.0 0.00 0.00 0.00 74 1016.7
20260505034546 61 0 0.0 0.0 0.00 0.00 0.00 72 1016.7
20260505033041 62 0 0.0 2.0 0.00 0.00 0.00 70 1016.8
20260505031547 63 0 0.0 3.0 0.00 0.00 0.00 69 1016.8
20260505030045 64 0 0.0 3.0 0.00 0.00 0.00 67 1016.8
20260505024544 64 117 1.0 6.0 0.00 0.00 0.00 66 1016.7
20260505023050 65 123 0.0 5.0 0.00 0.00 0.00 66 1016.6
20260505021544 65 119 0.0 5.0 0.00 0.00 0.00 65 1016.5
20260505020040 66 171 2.0 4.0 0.00 0.00 0.00 63 1016.4
20260505014542 66 126 1.0 5.0 0.00 0.00 0.00 61 1016.2
20260505013039 67 157 2.0 8.0 0.00 0.00 0.00 59 1016.2
20260505011544 68 121 2.0 7.0 0.00 0.00 0.00 58 1016.0
20260505010103 69 153 2.0 7.0 0.00 0.00 0.00 57 1015.8
20260505004541 70 150 2.0 10.0 0.00 0.00 0.00 55 1015.4
20260505003043 70 136 3.0 8.0 0.00 0.00 0.00 54 1015.1
20260505001541 71 142 2.0 8.0 0.00 0.00 0.00 52 1015.1
20260505000048 73 141 1.0 5.0 0.00 0.00 0.00 48 1014.8
20260504234544 74 109 0.0 4.0 0.00 0.00 0.00 44 1014.7
20260504233042 74 144 1.0 4.0 0.00 0.00 0.00 42 1014.5
20260504231545 75 0 1.0 4.0 0.00 0.00 0.00 41 1014.5
20260504230045 76 184 3.0 7.0 0.00 0.00 0.00 39 1014.5
20260504224537 76 148 3.0 11.0 0.00 0.00 0.00 38 1014.4
20260504223037 76 134 4.0 10.0 0.00 0.00 0.00 38 1014.5
20260504221556 77 128 4.0 11.0 0.00 0.00 0.00 37 1014.6
20260504220044 77 169 4.0 12.0 0.00 0.00 0.00 36 1014.4
20260504214538 78 115 5.0 10.0 0.00 0.00 0.00 35 1014.5
20260504213057 78 103 3.0 10.0 0.00 0.00 0.00 36 1014.4
20260504211546 79 105 4.0 10.0 0.00 0.00 0.00 36 1014.4
20260504210038 79 60 2.0 9.0 0.00 0.00 0.00 34 1014.4
20260504204542 79 92 3.0 8.0 0.00 0.00 0.00 35 1014.6
20260504203049 79 171 4.0 11.0 0.00 0.00 0.00 32 1014.7
20260504201541 79 0 1.0 10.0 0.00 0.00 0.00 35 1014.6
20260504200039 79 86 3.0 10.0 0.00 0.00 0.00 35 1014.6
20260504194544 79 227 2.0 9.0 0.00 0.00 0.00 36 1014.9
20260504193045 79 165 3.0 12.0 0.00 0.00 0.00 30 1015.3
20260504191543 79 213 1.0 5.0 0.00 0.00 0.00 36 1015.4
20260504190044 78 96 2.0 10.0 0.00 0.00 0.00 34 1015.9
20260504184542 78 146 3.0 10.0 0.00 0.00 0.00 36 1016.2
20260504183043 77 155 4.0 10.0 0.00 0.00 0.00 38 1016.3
20260504181543 77 112 4.0 11.0 0.00 0.00 0.00 36 1016.4
20260504180049 77 129 2.0 8.0 0.00 0.00 0.00 41 1016.4
20260504174546 77 0 1.0 4.0 0.00 0.00 0.00 39 1016.4
20260504173042 76 0 1.0 10.0 0.00 0.00 0.00 39 1016.7
20260504171540 76 200 2.0 5.0 0.00 0.00 0.00 37 1016.6